www.pogodaiklimat.ru

Погода и климат >> Архив погоды >> Ирландия >> Mace Head


ПОГОДА в Mace Head

  • Прогноз погоды в Mace Head
  • Монитор погоды в Mace Head
  • Климат города

АРХИВ ПОГОДЫ в Mace Head

Время (UTC), дата Ветер
(напр.,м/с)
 
Видим.   Явления Облачность Т
(С)
Тd
(С)
f
(%)
Тe
(С)
Тes
(С)
Комфортность P
(гПа)
Po
(гПа)
Тmin
(С)
Tmax
(С)
R
(мм)
R24
(мм)
S
(см)
16 11.10 Ю 9 17 км н/о +12.7 +6.8 67 +10 +10 994.2 991.5
17 11.10 Ю 8 18 км н/о +12.7 +6.3 65 +10 +10 993.8 991.0
18 11.10 Ю 8 15 км н/о +12.4 +6.1 65 +9 +9 994.2 991.4 +13.8 1
19 11.10 ЮВ 8 25 км н/о +12.4 +7.4 72 +9 +9 994.0 991.3
20 11.10 ЮВ 12 23 км н/о +12.4 +7.1 70 +9 +9 992.4 989.6
21 11.10 ЮВ 12
{17}
30 км н/о +11.6 +7.8 77 +7 +7 990.2 987.5
22 11.10 ЮВ 14
{19}
25 км н/о +12.2 +8.5 78 +8 +8 987.1 984.4
23 11.10 ЮВ 14
{21}
11 км слаб. дождь н/о +11.6 +9.6 88 +7 +7 983.8 981.1
00 12.10 ЮВ 17
{24}
6000 м слаб. дождь н/о +11.0 +8.9 87 +6 +6 979.9 977.2 4
01 12.10 ЮВ 19
{28}
9000 м слаб. ливневой дождь н/о +12.5 +10.5 88 +8 +8 977.3 974.6
02 12.10 ЮВ 14
{25}
4500 м ливневой дождь н/о +13.1 +11.5 90 +9 +9 976.5 973.8
03 12.10 Ю 19
{26}
10 км {ливн. осадки} н/о +13.6 +8.4 71 +10 +10 977.0 974.3
04 12.10 Ю 17
{28}
9000 м дымка н/о +13.4 +7.7 68 +9 +9 977.5 974.8
05 12.10 Ю 20
{31}
5000 м в посл. час дождь {ливн. осадки} н/о +12.3 +9.2 81 +7 +7 978.3 975.6
06 12.10 Ю 22
{30}
6000 м дымка {ливн. осадки} н/о +13.6 +6.8 63 +9 +9 978.1 975.4 +10.5 7
07 12.10 Ю 23
{32}
5000 м дымка н/о +14.0 +7.0 63 +10 +10 979.1 976.4
08 12.10 Ю 21
{28}
6000 м дымка н/о +14.1 +7.7 65 +10 +10 980.3 977.6
09 12.10 Ю 19
{29}
7000 м дымка н/о +14.3 +8.9 70 +11 +11 981.7 979.0
10 12.10 Ю 20
{27}
6000 м дымка н/о +14.4 +8.4 67 +11 +11 982.1 979.4
11 12.10 Ю 19
{27}
7000 м дымка н/о +14.4 +9.4 72 +11 +11 982.6 979.9
12 12.10 Ю 17
{27}
9000 м дымка н/о +14.3 +9.1 71 +11 +11 983.8 981.1
13 12.10 Ю 18
{23}
10 км н/о +14.0 +9.0 72 +10 +10 984.3 981.6
14 12.10 Ю 17
{23}
10 км н/о +14.1 +9.6 74 +10 +10 985.6 982.9
15 12.10 ЮЗ 17
{23}
9000 м дымка н/о +14.0 +9.9 76 +10 +10 986.9 984.2
16 12.10 Ю 17
{23}
8000 м дымка н/о +13.7 +10.2 79 +10 +10 988.1 985.4
17 12.10 ЮЗ 15
{22}
9000 м в посл. час дождь {ливн. осадки} н/о +13.1 +9.7 80 +9 +9 990.1 987.4
18 12.10 ЮЗ 13
{20}
11 км {ливн. осадки, дымка} н/о +12.6 +8.9 78 +9 +9 992.0 989.2 +15.0 0.7
19 12.10 ЮЗ 11 12 км н/о +12.5 +8.8 78 +9 +9 993.8 991.1
20 12.10 ЮЗ 8 10 км н/о +12.6 +9.0 79 +10 +10 995.3 992.5
21 12.10 ЮЗ 7 11 км н/о +12.5 +9.0 79 +10 +10 996.2 993.5
22 12.10 ЮЗ 5 11 км н/о +12.5 +8.6 77 +10 +10 997.0 994.2
23 12.10 Ю 5 12 км н/о +12.6 +10.1 85 +10 +10 997.3 994.5
00 13.10 Ю 6 19 км н/о +12.5 +9.8 84 +10 +10 997.3 994.6
01 13.10 Ю 5 13 км слаб. ливневой дождь н/о +12.5 +10.2 86 +10 +10 997.5 994.7
02 13.10 ЮВ 6 20 км н/о +12.3 +10.3 88 +10 +10 997.1 994.3
03 13.10 Ю 4 12 км {ливн. осадки} н/о +12.2 +10.5 89 +10 +10 997.1 994.4
04 13.10 ЮВ 4 15 км н/о +12.4 +10.6 89 +10 +10 996.9 994.1
05 13.10 СВ 3 35 км в посл. час морось н/о +11.1 +9.9 92 +9 +9 997.0 994.2
06 13.10 С 5 7000 м слаб. ливневой дождь {морось} н/о +11.4 +10.2 92 +9 +9 996.2 993.4 +10.9 0.4
07 13.10 С 4 8000 м слаб. ливневой дождь н/о +10.3 +9.4 94 +8 +8 996.5 993.7
08 13.10 СВ 2 20 км слаб. дождь н/о +9.8 +8.9 94 +8 +8 997.0 994.2
09 13.10 СВ 3 50 км в посл. час дождь {ливн. осадки} н/о +9.9 +9.0 94 +8 +8 996.3 993.6
10 13.10 СЗ 4 22 км слаб. морось н/о +10.5 +9.5 94 +8 +8 996.2 993.4
11 13.10 СЗ 6 35 км слаб. ливневой дождь н/о +10.9 +9.5 91 +8 +8 995.8 993.0
12 13.10 С 6 35 км слаб. ливневой дождь н/о +10.8 +9.4 91 +8 +8 996.3 993.5 9
13 13.10 СЗ 7 20 км слаб. ливневой дождь н/о +10.9 +9.4 90 +7 +7 997.0 994.3
14 13.10 С 7 22 км слаб. ливневой дождь н/о +10.6 +9.0 90 +7 +7 997.1 994.4
15 13.10 СЗ 6 35 км {ливн. осадки} н/о +10.7 +8.7 87 +7 +7 998.2 995.4
16 13.10 СЗ 6 27 км в посл. час морось н/о +10.9 +8.7 86 +8 +8 999.1 996.3
17 13.10 СЗ 7 30 км н/о +10.9 +7.5 80 +7 +7 1000.4 997.6
18 13.10 СЗ 9 30 км {ливн. осадки, морось} н/о +10.9 +6.8 76 +7 +7 1001.7 998.9 +11.4 9
19 13.10 СЗ 9 45 км н/о +10.7 +5.9 72 +7 +7 1002.7 999.9
20 13.10 СЗ 8 30 км н/о +10.8 +6.0 72 +7 +7 1004.0 1001.2
21 13.10 З 9 35 км в посл. час морось {ливн. осадки} н/о +10.0 +5.4 73 +6 +6 1005.0 1002.2
22 13.10 З 8 40 км н/о +10.6 +5.5 71 +7 +7 1005.7 1002.9
23 13.10 З 7 40 км н/о +10.5 +4.7 67 +7 +7 1006.3 1003.5
00 14.10 З 7 35 км {ливн. осадки} н/о +10.4 +4.8 68 +7 +7 1007.0 1004.2 0.0
01 14.10 З 8 50 км в посл. час морось н/о +10.2 +4.6 68 +6 +6 1007.3 1004.5
02 14.10 З 7 50 км н/о +10.1 +3.5 64 +7 +7 1007.8 1005.0
03 14.10 З 5 50 км {морось} н/о +10.1 +3.3 63 +7 +7 1007.8 1005.0
04 14.10 З 6 40 км н/о +10.2 +4.1 66 +7 +7 1007.7 1004.9
05 14.10 ЮЗ 6 35 км н/о +10.4 +4.0 65 +7 +7 1007.6 1004.8
06 14.10 ЮЗ 6 45 км {морось} н/о +10.2 +3.4 63 +7 +7 1007.8 1005.0 +9.7 0.3
07 14.10 ЮЗ 6 35 км н/о +10.3 +4.6 68 +7 +7 1008.5 1005.7
08 14.10 ЮЗ 7 50 км н/о +10.1 +3.5 64 +7 +7 1008.4 1005.6
09 14.10 ЮЗ 5 35 км н/о +11.1 +4.9 66 +9 +9 1008.6 1005.8
10 14.10 ЮЗ 3 30 км н/о +11.7 +5.7 67 +10 +10 1008.3 1005.5
11 14.10 Ю 5 35 км н/о +12.3 +5.0 61 +10 +10 1008.3 1005.5
12 14.10 Ю 5 30 км н/о +13.2 +6.0 62 +11 +11 1008.5 1005.7
13 14.10 Ю 6 40 км н/о +13.2 +5.8 61 +11 +11 1008.5 1005.7
14 14.10 Ю 5 45 км н/о +12.3 +5.6 64 +10 +10 1008.5 1005.8
15 14.10 Ю 6 35 км н/о +12.9 +6.5 65 +11 +11 1008.5 1005.8
16 14.10 Ю 6 40 км н/о +12.4 +5.9 65 +10 +10 1008.7 1005.9
17 14.10 Ю 5 45 км н/о +11.3 +5.0 65 +9 +9 1008.9 1006.1
18 14.10 Ю 4 30 км н/о +10.9 +5.4 69 +9 +9 1009.6 1006.8 +13.4
19 14.10 Ю 3 40 км н/о +10.6 +4.9 68 +9 +9 1010.0 1007.2
20 14.10 Ю 3 30 км н/о +10.6 +5.2 69 +9 +9 1010.5 1007.6
21 14.10 Ю 3 35 км н/о +10.7 +5.8 72 +9 +9 1011.1 1008.3
22 14.10 В 4 50 км н/о +9.3 +5.9 79 +6 +6 1011.6 1008.7
23 14.10 В 4 50 км н/о +8.8 +5.7 81 +6 +6 1011.7 1008.9
00 15.10 В 4 50 км н/о +8.8 +6.0 83 +6 +6 1012.3 1009.5
01 15.10 В 3 50 км н/о +9.0 +6.4 84 +7 +7 1012.6 1009.8
02 15.10 В 2 45 км н/о +9.4 +6.9 84 +8 +8 1012.9 1010.1
03 15.10 В 2 45 км н/о +8.2 +6.2 87 +6 +6 1012.7 1009.8
04 15.10 В 2 50 км в посл. час морось {ливн. осадки} н/о +8.7 +6.9 88 +7 +7 1012.9 1010.1
05 15.10 В 2 45 км в посл. час морось н/о +7.9 +6.3 90 +6 +6 1013.2 1010.4
06 15.10 СВ 2 45 км {ливн. осадки, морось} н/о +7.4 +5.9 90 +5 +5 1013.7 1010.8 +7.3 0.0
07 15.10 С 1 24 км н/о +7.7 +6.4 91 +7 +7 1014.3 1011.4
08 15.10 В 3 40 км н/о +7.5 +6.1 91 +5 +5 1014.8 1011.9
09 15.10 В 3 25 км н/о +10.3 +8.4 88 +8 +8 1015.0 1012.2
10 15.10 ЮВ 4 35 км н/о +11.8 +9.0 83 +10 +10 1015.2 1012.4
11 15.10 ЮВ 5 30 км н/о +12.4 +8.9 79 +10 +10 1014.9 1012.1
12 15.10 ЮВ 5 30 км н/о +12.6 +7.1 69 +10 +10 1014.4 1011.6
13 15.10 ЮВ 4 30 км н/о +13.3 +5.8 60 +12 +12 1014.0 1011.2
14 15.10 ЮВ 5 40 км н/о +13.3 +3.7 52 +12 +12 1013.4 1010.6
15 15.10 ЮВ 5 45 км н/о +13.1 +5.7 61 +11 +11 1012.9 1010.1
16 15.10 ЮВ 6 50 км н/о +12.9 +5.1 59 +11 +11 1012.4 1009.6
17 15.10 ЮВ 7 50 км н/о +12.0 +5.0 62 +9 +9 1012.2 1009.4
18 15.10 ЮВ 8 45 км н/о +12.0 +5.3 64 +9 +9 1012.0 1009.2 +13.6
19 15.10 ЮВ 8 45 км н/о +12.3 +6.9 70 +9 +9 1011.8 1009.0
20 15.10 Ю 8 30 км н/о +12.5 +7.6 72 +10 +10 1011.3 1008.5
21 15.10 Ю 8 25 км н/о +12.1 +8.6 79 +9 +9 1010.7 1007.9
22 15.10 Ю 9 20 км н/о +11.8 +8.4 80 +8 +8 1010.3 1007.5
23 15.10 Ю 8 26 км н/о +11.5 +8.2 80 +8 +8 1009.8 1007.0
00 16.10 Ю 9 21 км н/о +11.5 +8.2 80 +8 +8 1009.2 1006.4
01 16.10 Ю 9 25 км н/о +11.6 +7.9 78 +8 +8 1008.6 1005.8
02 16.10 Ю 10 30 км н/о +11.8 +8.3 79 +8 +8 1007.5 1004.7
03 16.10 Ю 9 21 км н/о +12.1 +8.8 80 +9 +9 1006.6 1003.8
04 16.10 Ю 10 7000 м морось н/о +12.3 +10.0 86 +9 +9 1005.8 1003.1
05 16.10 Ю 14
{17}
н/о н/о +12.5 +11.5 94 +8 +8 1005.0 1002.3
06 16.10 Ю 14
{19}
н/о н/о +12.8 +12.0 95 +9 +9 1004.7 1001.9 +11.2 2
07 16.10 Ю 13
{19}
н/о н/о +13.1 +12.3 95 +9 +9 1004.9 1002.1
08 16.10 ЮЗ 11
{19}
4100 м слаб. ливневой дождь н/о +13.3 +12.6 96 +10 +10 1005.8 1003.0
09 16.10 ЮЗ 10 9000 м дымка н/о +13.2 +11.7 91 +10 +10 1006.6 1003.9
10 16.10 ЮЗ 9 9000 м дымка н/о +14.0 +11.6 85 +11 +11 1007.2 1004.4
11 16.10 ЮЗ 9 8000 м дымка н/о +14.0 +11.0 82 +11 +11 1007.5 1004.7
17 16.10 ЮЗ 11 8000 м дымка н/о +13.5 +11.4 87 +10 +10 1008.9 1006.1
18 16.10 З 10 10 км н/о +12.7 +10.6 87 +9 +9 1009.6 1006.8
20 16.10 ЮЗ 9 14 км н/о +12.5 +9.8 84 +9 +9 1010.8 1008.0
19 16.10 З 7 12 км н/о +12.4 +10.3 87 +9 +9 1010.5 1007.7
21 16.10 ЮЗ 8 13 км н/о +12.4 +10.1 86 +9 +9 1011.2 1008.4
22 16.10 ЮЗ 7 11 км н/о +12.5 +10.6 88 +10 +10 1011.7 1008.9
23 16.10 ЮЗ 9 10 км н/о +12.5 +10.6 88 +9 +9 1011.8 1009.0
00 17.10 З 9 13 км н/о +12.4 +10.2 86 +9 +9 1012.2 1009.4
02 17.10 СЗ 6 21 км н/о +10.5 +9.1 91 +7 +7 1013.8 1011.0
01 17.10 З 10 15 км н/о +11.6 +10.1 91 +8 +8 1012.9 1010.1
03 17.10 З 7 10 км слаб. ливневой дождь н/о +10.2 +7.5 83 +7 +7 1014.5 1011.6
04 17.10 СЗ 5 18 км слаб. ливневой дождь н/о +9.9 +8.0 88 +7 +7 1015.5 1012.6
05 17.10 СЗ 9 30 км н/о +10.7 +5.0 68 +7 +7 1016.2 1013.3
06 17.10 СЗ 7 18 км слаб. ливневой дождь н/о +10.2 +6.3 77 +7 +7 1017.2 1014.4 +9.8 0.1
08 17.10 СЗ 6 22 км н/о +10.1 +6.1 76 +7 +7 1019.6 1016.8
07 17.10 СЗ 5 20 км н/о +9.5 +5.8 78 +6 +6 1018.3 1015.5
09 17.10 н/о н/о +11.3 +6.2 71 1020.7 1017.9
10 17.10 н/о н/о +11.4 +5.2 66 1021.6 1018.7
11 17.10 СЗ 7 н/о н/о +12.0 +4.8 61 +9 +9 1022.4 1019.6
12 17.10 З 7 20 км в посл. час туман н/о +11.6 +5.6 67 +9 +9 1023.1 1020.2
14 17.10 СЗ 6 22 км н/о +12.7 +4.8 59 +10 +10 1024.0 1021.1
13 17.10 СЗ 6 25 км н/о +12.3 +5.4 63 +10 +10 1023.4 1020.6
15 17.10 СЗ 7 22 км н/о +12.5 +5.4 62 +10 +10 1024.5 1021.7
16 17.10 СЗ 6 19 км н/о +11.5 +5.3 66 +9 +9 1025.1 1022.3
17 17.10 СЗ 5 18 км н/о +11.5 +6.1 69 +9 +9 1025.9 1023.1
18 17.10 СЗ 4 17 км н/о +10.3 +6.0 75 +8 +8 1026.9 1024.0 +12.9
20 17.10 С 2 22 км н/о +9.1 +5.8 80 +7 +7 1028.4 1025.5
19 17.10 СЗ 2 13 км слаб. ливневой дождь н/о +10.7 +6.5 75 +9 +9 1027.6 1024.8
21 17.10 С 2 25 км {ливн. осадки} н/о +8.4 +5.6 83 +7 +7 1029.0 1026.1
22 17.10 СВ 2 11 км н/о +7.6 +5.4 86 +6 +6 1029.2 1026.3
23 17.10 В 2 29 км н/о +8.3 +5.8 84 +6 +6 1029.4 1026.5
00 18.10 ЮВ 1 9000 м дымка {ливн. осадки} н/о +8.5 +5.5 81 +8 +8 1029.4 1026.5 0.0
02 18.10 В 1 20 км н/о +8.2 +6.6 90 +7 +7 1029.0 1026.1
01 18.10 ЮВ 1 35 км н/о +8.5 +5.3 80 +8 +8 1029.2 1026.3
03 18.10 ЮВ 3 29 км н/о +7.1 +5.6 90 +4 +4 1028.8 1025.9
04 18.10 В 3 30 км н/о +7.0 +5.5 90 +4 +4 1029.1 1026.2
05 18.10 В 3 30 км н/о +7.1 +5.5 90 +4 +4 1029.0 1026.1
06 18.10 В 4 27 км н/о +6.8 +5.5 91 +3 +3 1029.2 1026.3 +6.5 0.0
08 18.10 В 3 19 км н/о +7.9 +6.9 93 +5 +5 1029.2 1026.3
07 18.10 В 2 22 км н/о +7.4 +6.2 92 +5 +5 1029.4 1026.5
09 18.10 В 3 18 км н/о +8.5 +7.5 93 +6 +6 1029.1 1026.2
10 18.10 Ю 6 16 км н/о +11.7 +8.5 81 +9 +9 1028.4 1025.5
11 18.10 Ю 7 15 км н/о +11.3 +8.4 82 +8 +8 1028.2 1025.4
12 18.10 Ю 7 17 км н/о +11.2 +7.1 76 +8 +8 1027.8 1024.9
14 18.10 Ю 6 27 км н/о +12.3 +5.6 64 +10 +10 1026.6 1023.7
13 18.10 Ю 7 26 км н/о +12.0 +7.1 72 +9 +9 1027.3 1024.4
15 18.10 Ю 6 25 км н/о +12.0 +5.4 64 +9 +9 1026.2 1023.3

 

Местоположение метеостанции Mace Head (Ирландия): широта 53.32 долгота -9.90 высота над уровнем моря 21 м.

В архиве по умолчанию представлена погода в Mace Head за последнюю неделю. Архивные данные за месяц целиком и за предыдущие месяцы, начиная с января 2011 года, Вы можете получить, выбрав интересующий диапазон дат из раскрывающегося списка и нажав кнопку "Ввод!".


*Определитесь, кто Вы:
робот инопланетянин человек

Внимание! Время в таблицах - всемирное. Для получения местного времени необходимо прибавить поправку, которая в Mace Head равна 0 ч.

Смотрите также архив погоды в соседних городах и на ближайших метеорологических станциях:

Погода в Claremorris (Ирландия) (74 км)
Погода в Shannon Airport (Ирландия) (96 км)
Погода в Knock Airport (Ирландия) (97 км)
Погода в Belmullet (Ирландия) (101 км)
Погода в Gurteen (Ирландия) (130 км)
Погода в Valentia Observatory (Ирландия) (156 км)
Погода в Finner (Ирландия) (170 км)
Погода в Mullingar (Ирландия) (170 км)
Погода в Thomastown (Великобритания) (189 км)
Погода в Ballyhaise, Cavan (Ирландия) (189 км)

Пояснения к столбцам:

Ветер - указаны скорость ветра в м/с - средняя за 10 мин, порывы в срок и между сроками (в фигурных скобках) и направление, откуда дует ветер: С - северный, СВ - северо-восточный, В - восточный, ЮВ - юго-восточный, Ю - южный, ЮЗ - юго-западный, З - западный, СЗ - северо-западный.
Видимость - горизонтальная дальность видимости в метрах или километрах. При видимости от 1 до 10 км при отсутствии осадков обычно наблюдается дымка, при ухудшении видимости до 1 км и менее - туман. В сухую погоду видимость может ухудшаться дымом, пылью или мглою.
Явления - указаны атмосферные явления, наблюдавшиеся в срок или в последний час перед сроком; фигурными скобками обозначены явления, наблюдавшиеся между сроками (за 1-3 часа до срока); квадратными скобками обозначены град или гололедные отложения с указанием их диаметра в мм.
Облачность - указаны через наклонную черту общая и нижняя облачность в баллах и высота нижней границы облаков в метрах; квадратными скобками обозначены формы облаков: Ci - перистые, Cs - перисто-слоистые, Cc - перисто-кучевые, Ac - высококучевые, As - высокослоистые, Sc - слоисто-кучевые, Ns - слоисто-дождевые, Cu - кучевые, Cb - кучево-дождевые. Подробнее классификацию облаков см. в Атласе облаков (PDF).
T - Температура воздуха - температура, измеренная на высоте 2 м над землей.
Td - Температура точки росы - температура, при понижении до которой содержащийся в воздухе водяной пар достигнет насыщения.
f - Относительная влажность воздуха - влажноcть воздуха, измеренная на высоте 2 м над землей.
Te - Эффективная температура - температура, которую ощущает одетый по сезону человек в тени. Характеристика душности погоды. При расчете учитывается влияние влажности воздуха и скорости ветра на теплоощущения человека.
Tes - Эффективная температура на солнце - температура, которую ощущает человек, с поправкой на солнечный нагрев. Характеристика знойности погоды. Зависит от высоты солнца над горизонтом, облачности и скорости ветра. Ночью, в пасмурную погоду, а также при ветре 12 м/с и более поправка равна нулю.
P - Атмосферное давление - приведенное к уровню моря атмосферное давление.
Po - Атмосферное давление - измеренное на уровне метеостанции атмосферное давление.
Tmin - Минимальная температура - минимум температуры воздуха на высоте 2 м над землей.
Tmax - Максимальная температура - максимум температуры воздуха на высоте 2 м над землей.
R - Количество осадков - Количество выпавших осадков за период времени, мм. При наведении курсора мыши на число - период времени, за который выпало указанное количество осадков.
R24 - Количество осадков - Количество выпавших осадков за 24 часа, мм.
S - Снежный покров - Высота снежного покрова, см. При наведении курсора мыши на число - состояние снежного покрова и степень покрытия местности в баллах.